Theta_e
289 289 289 288 288 289 289 289 289 289 288 289 290 291 291 292 292 290 291 292 294 295 295 295 295 295 295 295 295 295 295 295 295 295 297 296 296 296 296 296 296 296 297 297 297 296 296 295 295 295 295 294 294 294 294 293 293 294 295 295 295 296
288 289 289 289 289 288 287 288 287 288 288 289 289 289 288 289 290 290 291 292 293 294 292 293 294 294 295 295 295 294 295 295 295 295 294 296 296 296 296 296 296 296 296 296 297 296 295 295 295 295 295 294 295 294 294 293 293 293 294 294 294 295
288 288 287 288 287 285 286 286 288 288 289 289 289 290 290 290 290 290 292 291 292 292 293 293 293 293 294 294 294 295 294 294 295 295 296 294 295 296 295 296 296 296 296 296 296 296 296 295 295 295 294 294 294 294 294 293 293 293 293 294 293 292
287 287 287 286 285 288 287 288 287 287 288 290 289 289 291 291 290 291 292 291 292 292 293 293 292 293 293 293 293 294 294 294 294 295 294 295 295 295 296 296 296 296 296 296 296 296 296 296 296 295 295 294 294 294 294 294 293 293 293 292 293 292
287 287 288 288 288 288 287 286 287 289 289 289 289 290 292 292 292 291 290 291 291 292 292 292 292 292 292 292 293 293 293 294 293 293 294 295 294 294 296 296 296 296 296 296 296 296 296 296 295 295 295 295 295 294 294 294 293 293 293 292 292 292
286 287 289 290 290 288 289 288 287 288 289 290 289 290 292 291 291 290 290 290 291 290 289 291 291 291 291 292 293 293 293 293 293 293 294 294 294 294 294 295 295 295 295 295 295 295 296 295 295 294 294 295 295 294 294 294 293 293 293 293 293 292
287 289 290 290 291 290 289 290 289 288 289 289 290 291 292 291 289 289 290 290 290 289 290 290 290 291 291 292 292 292 292 292 292 292 293 293 293 293 293 292 293 294 294 295 294 294 295 295 295 294 294 294 294 295 295 294 294 294 293 293 293 293
287 287 288 289 290 291 292 291 291 290 289 289 290 291 290 290 288 290 290 289 289 289 289 290 289 291 291 292 292 292 292 292 291 292 292 293 293 292 292 293 292 294 294 294 294 294 294 294 294 295 294 294 294 294 294 294 293 293 293 292 292 292
290 289 288 289 290 291 292 291 291 290 289 288 288 289 289 289 288 289 290 289 289 290 289 290 290 291 292 292 292 291 290 291 291 291 291 291 293 292 291 291 292 292 293 293 293 293 294 294 293 294 293 293 293 293 293 292 292 292 292 292 292 292
290 290 290 288 289 290 290 290 290 290 289 289 289 287 287 288 287 288 289 289 288 289 290 290 290 290 290 290 288 289 289 290 289 291 290 289 291 291 291 291 292 291 291 292 292 293 292 292 292 292 292 292 292 292 292 292 292 291 290 290 290 291
291 291 290 290 288 288 289 289 288 287 287 287 288 286 287 286 287 287 288 288 288 290 290 288 286 286 287 287 287 287 288 288 289 288 288 288 289 290 290 291 291 290 289 288 289 290 289 291 291 292 292 292 291 291 292 292 291 291 290 290 289 289
292 292 293 293 292 289 287 287 287 287 288 289 288 286 286 285 287 288 287 288 289 288 287 286 285 286 286 286 287 287 287 287 286 286 286 287 287 287 286 287 287 289 289 289 287 287 287 289 290 290 292 293 292 291 291 290 290 290 289 288 287 286
290 291 291 291 291 290 289 288 288 287 286 287 287 287 286 286 287 287 287 289 288 286 285 285 285 285 286 286 285 285 286 286 285 285 286 285 285 286 285 286 287 286 287 288 288 287 287 288 290 291 294 294 294 291 290 290 289 288 288 287 287 287
290 290 291 291 292 291 288 288 288 286 287 287 286 287 284 285 286 287 287 287 286 285 285 285 285 285 285 285 286 286 285 284 285 285 286 285 284 284 284 285 286 286 285 285 286 286 286 286 290 293 294 294 294 292 290 289 288 287 287 286 286 285
291 291 291 291 291 291 290 288 286 286 287 286 287 284 284 285 286 287 286 284 285 285 284 284 285 285 284 285 285 284 284 285 285 284 285 286 284 284 285 285 284 284 284 285 285 284 283 284 291 293 293 294 294 294 290 287 286 286 285 285 285 285
291 291 290 291 290 289 288 285 287 287 286 285 283 284 285 286 285 286 285 284 284 284 284 285 284 283 285 285 285 285 285 285 286 284 285 285 286 286 284 284 285 284 284 284 284 283 283 283 290 292 293 293 293 294 290 285 285 284 284 284 284 283
290 289 288 288 287 285 284 283 282 283 283 283 284 284 285 285 285 284 284 284 283 283 284 285 285 285 284 285 285 286 286 285 284 284 284 286 286 284 283 283 283 284 284 284 284 284 284 285 291 292 292 293 293 294 289 284 284 283 282 282 282 282
289 288 289 287 285 284 283 284 281 282 283 282 284 283 284 284 284 283 283 283 282 284 285 285 284 284 284 284 284 284 284 284 284 284 284 283 283 284 284 284 284 284 284 284 283 284 284 285 290 290 291 292 292 289 284 284 283 282 282 282 282 282
283 282 282 283 283 282 282 281 282 283 282 283 282 283 283 284 283 283 282 282 282 283 284 284 284 284 284 283 283 283 283 283 283 283 283 283 284 284 283 284 283 284 283 283 282 282 282 283 286 288 288 289 289 284 283 284 283 283 282 282 282 282
279 280 279 279 279 280 280 281 282 283 283 282 282 283 283 283 282 281 282 281 281 282 284 285 285 284 284 284 282 282 283 283 284 284 285 284 283 283 282 282 281 281 281 281 281 282 282 282 285 287 286 285 285 284 283 283 282 283 283 283 284 284
278 278 278 279 278 279 280 282 282 283 282 280 281 281 280 280 280 280 280 280 280 280 281 283 283 283 283 283 282 282 283 283 283 282 282 282 282 281 280 279 279 278 279 279 280 281 281 281 283 286 286 285 284 282 282 282 282 282 283 283 284 283
276 275 275 275 276 277 279 281 281 280 279 278 278 278 277 277 277 278 278 278 278 278 279 280 281 282 282 282 281 281 281 280 281 281 281 281 280 279 278 278 277 276 276 277 278 279 280 281 281 283 285 285 284 282 279 279 280 280 282 282 282 282
273 272 272 273 275 276 278 279 278 277 276 276 276 275 275 276 276 276 276 276 277 277 277 278 279 279 278 279 279 278 278 279 280 280 280 279 278 277 276 276 275 275 275 275 276 277 277 279 280 282 284 284 283 282 279 277 276 277 277 278 278 279
272 273 273 273 274 276 277 277 276 275 275 274 273 274 275 275 275 275 275 275 275 275 275 276 276 276 276 276 277 277 276 276 278 279 278 278 277 276 274 274 273 273 273 273 273 274 275 277 278 280 282 283 283 282 281 277 276 276 275 275 274 274
272 271 271 272 273 275 276 276 274 273 274 272 273 273 273 274 274 274 273 273 272 272 272 273 273 274 274 275 275 276 275 275 276 276 277 276 275 274 273 273 272 272 272 272 272 272 272 274 276 279 279 281 281 282 281 280 278 278 274 273 272 272
271 271 271 271 271 272 274 275 274 273 272 271 272 272 272 273 273 273 272 272 272 272 272 272 272 272 272 273 274 274 274 273 273 274 274 275 275 273 272 272 271 271 271 271 271 272 272 272 273 275 276 277 280 280 280 280 280 278 273 272 271 270
271 270 270 270 270 271 271 273 273 272 271 271 272 272 272 272 271 271 270 270 271 271 271 272 272 272 272 272 273 273 272 272 272 272 271 273 273 272 271 270 270 270 270 270 270 271 271 271 270 271 273 274 276 278 278 278 278 278 277 272 270 272
270 269 269 269 269 269 269 270 272 271 271 272 272 272 272 272 271 270 270 270 271 271 272 272 272 272 273 273 273 272 271 270 270 270 269 269 269 269 269 269 269 269 270 269 270 270 270 269 268 268 269 271 272 273 275 276 276 275 276 275 272 277
269 269 268 267 268 268 268 268 269 270 270 270 271 271 271 270 270 269 269 270 270 271 272 272 272 272 272 272 272 272 271 271 270 269 269 269 269 268 268 268 268 268 269 269 270 270 270 269 268 267 266 268 269 268 269 269 270 273 273 271 271 273
269 268 267 266 267 267 266 267 267 268 268 269 270 270 270 269 269 268 268 268 269 270 271 271 271 271 271 271 271 271 271 271 271 270 270 269 270 270 270 270 270 269 269 269 270 269 269 269 269 269 268 270 270 268 268 268 268 267 267 270 272 271
267 266 266 265 265 265 265 265 266 266 267 268 268 268 268 268 268 268 267 268 269 269 270 270 270 270 270 270 270 271 271 271 271 271 270 270 270 270 269 269 269 269 269 269 269 269 268 269 269 270 273 273 274 272 270 270 270 270 270 273 274 269
265 264 263 264 264 264 264 264 265 265 266 267 268 268 267 267 267 266 266 267 268 268 269 269 270 270 270 269 269 269 269 272 273 273 272 271 273 272 272 271 268 269 269 269 270 270 269 268 270 273 273 273 273 275 275 274 274 274 272 273 273 268
263 263 262 263 263 263 263 263 264 264 265 266 267 267 267 267 266 265 265 266 266 267 268 268 269 269 269 269 268 267 267 267 268 271 272 272 273 273 273 274 273 273 271 269 268 271 273 273 272 271 271 272 273 273 274 273 273 273 273 273 267 264
262 262 262 262 262 262 263 262 263 263 264 265 266 266 266 266 266 264 264 265 266 267 267 267 267 267 266 266 267 266 266 265 264 265 268 268 269 270 271 272 272 272 273 272 270 267 266 269 270 270 269 269 269 270 272 272 272 271 271 271 270 262
262 262 262 262 262 262 262 262 262 263 264 264 265 265 265 265 264 264 264 265 265 266 266 266 265 265 265 264 264 264 264 263 263 262 262 264 266 266 266 267 267 268 268 269 270 270 269 268 268 268 268 268 269 270 269 271 271 270 270 269 263 261
261 261 261 261 261 261 261 261 262 263 264 265 265 265 264 264 264 264 264 264 265 264 264 264 264 264 264 264 263 262 262 262 262 261 261 260 259 261 263 264 265 264 265 265 266 265 266 266 266 266 266 266 267 268 268 268 267 268 269 265 259 260
261 261 261 260 260 260 260 260 261 262 263 263 264 264 264 264 264 264 264 264 264 264 263 263 263 263 263 263 262 262 261 261 261 261 261 260 259 259 258 258 260 263 263 262 263 264 264 264 264 265 265 265 266 267 267 265 259 258 258 257 257 257
260 260 260 260 260 259 259 259 261 261 261 262 262 262 262 262 262 262 262 262 263 262 262 262 262 262 262 262 262 262 262 261 261 261 260 260 260 259 258 258 259 259 262 262 262 263 263 263 263 263 263 263 264 265 265 257 257 256 256 255 254 254
Wind_Speed
6 6 5 4 4 4 4 4 5 5 5 6 6 7 6 5 6 5 4 5 5 6 7 8 7 6 6 6 6 6 7 7 7 7 8 6 6 7 6 7 7 8 8 8 8 8 8 7 8 8 8 8 8 7 8 6 7 7 8 7 7 7
6 6 5 5 4 4 3 3 2 3 3 4 4 3 2 1 4 4 5 6 5 5 4 5 5 6 6 6 7 7 7 7 7 7 6 8 7 7 7 8 8 8 8 8 8 8 7 8 7 8 8 8 8 8 7 7 7 7 8 7 7 6
6 5 4 5 5 4 4 4 4 3 2 3 3 4 4 4 4 4 5 4 6 5 7 7 6 7 6 6 7 8 8 7 7 7 7 5 7 7 8 8 8 8 9 9 8 9 8 8 8 8 8 8 8 7 8 7 8 8 8 7 7 6
6 5 4 5 5 6 5 4 2 4 4 4 3 3 5 5 5 6 5 5 5 7 7 7 5 7 6 7 7 7 7 7 7 7 6 7 8 8 9 9 8 8 8 8 9 9 9 9 9 8 8 9 8 8 7 8 9 8 8 7 8 7
6 6 6 7 6 6 5 5 4 5 5 4 4 5 8 6 6 4 4 5 6 7 6 5 6 6 7 7 7 7 7 7 6 6 8 8 7 7 8 9 8 8 8 8 9 9 8 9 9 8 9 9 10 10 9 9 9 10 9 9 9 8
5 5 7 7 6 6 6 5 5 5 5 5 4 7 9 5 6 5 5 6 7 6 5 6 6 7 7 7 7 7 6 6 6 6 7 7 7 8 7 7 8 7 8 8 8 8 8 8 8 8 9 10 10 9 10 9 9 9 9 10 9 8
6 7 7 8 8 6 6 7 7 6 8 5 7 9 7 5 5 6 6 6 7 6 6 6 6 7 7 7 6 7 6 6 6 6 7 7 7 7 7 6 6 7 7 8 8 8 7 8 8 9 8 8 8 9 9 9 9 9 9 9 9 8
5 6 7 7 7 8 8 7 8 8 7 8 6 7 6 7 5 6 6 6 7 7 7 7 6 7 8 8 7 8 7 7 6 7 6 7 8 7 7 8 7 8 8 7 8 8 8 8 8 9 9 9 8 7 8 8 8 8 8 7 7 7
13 9 6 7 8 8 8 7 7 7 8 9 7 6 6 5 6 6 7 7 7 6 7 7 8 8 8 8 8 6 6 7 7 7 8 7 8 8 8 6 7 6 7 7 7 7 7 7 7 7 7 7 7 8 8 7 7 7 7 6 7 7
11 12 12 8 9 9 8 7 7 7 7 9 7 6 6 6 6 6 7 7 7 7 8 9 7 6 6 5 4 5 6 6 6 7 6 7 7 8 8 8 8 6 6 7 7 7 7 7 7 6 7 7 7 7 7 7 7 7 6 5 6 6
12 13 13 13 9 10 10 8 8 6 7 7 8 6 8 6 6 7 7 7 8 9 8 6 5 4 5 5 5 5 6 6 6 5 6 6 6 6 6 6 7 7 6 5 5 5 5 7 7 7 8 7 7 7 7 7 7 7 7 6 5 5
13 14 15 15 15 12 9 8 8 8 8 9 8 7 6 6 8 7 7 8 10 7 5 5 5 5 5 5 6 6 5 5 5 6 5 5 5 5 5 5 4 6 7 6 5 5 5 5 5 7 12 10 8 7 6 5 6 6 5 5 4 4
12 14 15 17 17 14 11 9 8 7 8 9 7 8 7 7 7 7 8 10 8 6 5 5 6 5 6 6 5 5 6 6 6 6 5 5 5 6 5 6 6 5 6 7 7 6 6 6 6 10 11 12 11 7 6 7 6 5 5 5 5 5
15 16 17 17 17 14 9 10 9 7 10 8 8 8 4 6 7 9 9 8 5 5 6 6 6 6 6 6 6 6 6 6 6 6 6 6 5 5 5 6 6 6 5 5 5 6 6 6 6 10 10 11 12 10 7 6 6 6 5 5 5 5
17 16 16 14 14 13 11 9 7 9 10 8 8 4 6 8 8 8 7 5 6 6 5 6 7 6 6 7 6 6 7 7 7 6 6 6 5 5 6 6 6 6 5 6 6 4 3 3 4 7 9 10 11 11 8 6 5 5 5 5 5 5
12 12 12 13 12 9 8 5 8 9 7 7 4 6 7 8 8 8 7 6 5 6 6 6 6 7 6 6 7 7 7 7 7 7 5 6 6 6 6 6 6 6 6 6 7 6 4 3 5 7 8 9 10 11 8 5 6 5 5 5 5 4
12 10 10 9 9 7 5 4 5 2 2 4 5 5 6 6 7 6 5 5 4 4 5 5 6 7 5 5 5 6 6 7 7 7 5 6 6 8 9 9 8 6 7 7 7 7 6 3 6 7 8 9 10 12 8 5 5 5 4 4 4 4
10 10 11 6 5 5 5 6 4 4 4 3 5 5 5 5 5 5 5 5 4 5 5 6 6 5 6 6 6 7 7 6 6 8 6 7 6 6 7 6 8 9 8 7 7 8 8 5 10 10 10 10 11 10 6 6 6 6 6 5 4 5
5 5 4 3 2 2 3 1 3 4 4 4 3 5 5 6 6 6 6 6 5 6 6 7 8 8 7 7 9 8 7 7 6 6 5 9 8 9 8 8 7 7 8 7 7 9 7 7 9 12 12 12 12 8 7 7 7 7 7 6 5 4
3 3 2 1 4 4 1 1 3 5 5 4 4 4 4 4 5 4 5 6 5 6 7 8 10 10 9 9 11 9 7 7 7 7 6 10 9 9 7 7 8 7 6 8 7 7 9 7 9 13 13 13 13 10 9 8 9 8 7 6 5 5
3 4 5 4 4 4 2 2 4 6 6 5 5 5 6 5 4 4 4 4 2 3 5 7 8 9 9 9 8 8 9 8 7 6 6 8 9 8 7 8 9 9 8 8 8 10 10 8 9 14 14 13 12 9 7 7 7 8 6 6 6 6
4 8 9 8 6 4 3 4 5 6 7 6 6 8 7 5 5 4 4 4 4 3 4 3 6 6 8 9 8 7 7 7 8 8 9 8 8 9 8 8 9 10 8 7 8 8 7 9 8 11 16 15 14 12 7 5 7 6 6 5 5 5
6 7 6 5 6 4 3 5 8 7 6 7 9 8 6 4 4 5 5 5 6 6 6 5 5 8 7 7 8 7 7 6 8 8 10 10 9 9 9 10 9 10 9 8 8 8 8 7 8 11 17 16 16 16 12 8 7 6 6 6 6 5
8 7 8 8 8 7 3 6 9 6 7 9 9 6 4 4 5 5 6 7 7 6 6 6 6 7 7 6 7 9 8 6 7 8 9 9 10 11 11 9 9 10 9 8 8 8 9 9 11 9 15 17 17 16 16 9 7 6 7 7 5 4
5 7 6 6 7 8 7 4 9 6 7 10 6 4 5 5 6 7 7 7 7 6 6 5 7 7 6 7 7 9 9 7 8 8 9 10 10 11 11 10 9 10 10 9 8 7 8 8 9 14 11 16 16 17 16 15 10 11 7 7 5 4
5 6 7 6 5 6 7 4 6 7 9 8 3 2 3 6 7 8 8 7 6 6 5 6 7 7 7 7 8 9 9 9 8 8 7 8 10 10 10 8 8 9 10 8 7 7 6 7 7 11 13 12 16 15 15 14 14 11 5 5 4 3
6 6 7 8 8 5 5 4 5 10 10 4 4 3 3 4 6 8 8 8 6 6 6 7 7 7 7 6 6 8 8 7 7 9 5 8 8 9 10 7 7 9 8 7 7 6 6 6 7 6 9 12 12 14 14 13 12 12 10 5 3 1
6 6 7 7 9 8 5 5 3 9 7 6 5 5 4 4 6 8 7 7 7 7 7 9 8 8 7 8 8 8 6 6 7 8 6 7 7 7 9 8 9 8 7 8 6 6 6 6 5 6 5 6 6 7 11 11 10 8 8 6 3 5
5 5 6 7 6 8 8 6 5 5 6 6 6 6 6 7 7 7 8 8 8 6 7 8 6 6 7 8 8 8 8 7 7 8 7 7 8 8 8 8 8 10 9 8 6 7 6 6 5 5 4 5 5 5 5 5 5 6 6 6 5 5
4 5 6 6 6 5 6 7 6 5 4 5 6 7 9 9 8 8 8 8 7 6 7 8 9 9 7 8 8 8 8 8 8 8 7 6 6 8 7 7 7 7 7 7 7 6 6 6 6 5 5 4 4 4 5 4 4 5 4 4 4 4
5 5 6 6 5 4 5 5 6 6 5 5 5 7 10 10 8 7 8 7 8 8 7 7 8 9 7 7 9 7 7 7 7 9 8 7 4 5 7 8 8 6 6 6 6 7 6 6 6 5 6 6 7 6 5 5 5 4 4 5 6 5
6 6 6 5 5 5 5 4 4 5 5 4 4 7 11 10 8 9 8 6 7 7 7 7 8 8 9 7 7 8 10 18 19 11 8 8 15 17 15 11 8 6 7 8 7 6 7 6 5 10 12 11 11 11 11 10 10 8 5 8 12 7
7 7 7 6 6 5 5 5 4 5 6 5 5 6 9 10 9 8 7 7 6 6 6 7 7 7 8 8 8 8 9 7 12 22 23 20 18 18 19 19 18 18 14 10 8 10 17 15 14 13 13 12 11 11 11 11 11 10 9 7 7 6
7 6 6 6 6 6 6 6 6 6 5 4 5 6 7 8 9 9 7 7 6 7 6 6 7 7 7 7 6 7 9 10 9 9 17 20 19 20 21 20 19 18 17 16 13 9 7 12 13 13 12 11 11 10 11 12 12 11 9 9 10 6
6 6 7 6 5 5 6 6 6 6 6 5 4 5 9 8 9 9 8 6 6 7 7 7 7 6 7 7 7 6 6 7 8 9 7 10 17 20 19 18 18 18 18 18 18 16 13 11 11 13 13 12 11 9 8 10 13 13 10 10 7 6
6 6 5 6 7 6 6 6 6 7 6 6 5 6 7 7 8 7 6 6 7 6 5 5 5 6 6 6 6 5 6 5 6 7 8 8 6 8 11 14 16 15 15 16 15 14 14 13 13 13 12 11 10 9 8 7 8 14 16 11 6 5
6 6 6 6 6 7 6 7 6 6 6 6 6 8 9 8 9 8 9 10 7 6 6 6 6 6 6 6 6 6 6 6 5 6 6 5 6 6 6 4 7 11 14 10 10 12 13 12 12 12 11 11 10 9 8 10 6 5 6 7 6 5
7 6 6 6 6 7 8 8 6 6 5 6 7 9 9 8 8 7 6 7 8 7 6 6 6 6 6 6 6 5 6 5 5 6 6 6 5 5 5 4 4 4 7 12 10 11 10 10 11 11 11 11 12 10 7 5 4 5 4 4 4 4
Wind_Direction
244 240 240 247 240 240 237 213 202 202 201 208 209 214 214 202 195 194 192 190 194 193 197 195 198 199 197 195 188 179 186 189 188 187 193 184 180 175 170 176 178 179 182 182 182 176 181 179 182 180 181 180 185 189 196 188 178 186 198 202 194 205
245 241 244 256 258 261 254 256 252 236 211 201 218 245 255 214 196 190 199 203 197 200 192 206 201 196 194 191 183 188 192 192 187 190 183 190 178 183 178 177 180 180 179 183 178 179 177 179 183 178 181 180 191 186 193 191 181 190 199 203 201 191
269 276 273 270 278 267 273 271 275 274 258 236 220 234 246 232 218 192 212 186 203 195 201 201 192 197 194 190 191 191 194 190 188 189 191 166 187 178 177 182 184 181 183 178 179 179 180 182 182 182 177 183 188 191 194 186 185 192 204 198 204 196
286 286 283 268 274 278 274 272 267 274 252 235 209 211 237 228 224 208 205 200 196 201 208 204 193 193 189 191 193 196 192 192 190 188 173 185 192 179 183 186 184 183 179 178 182 183 183 186 185 180 177 183 187 195 192 190 188 196 202 195 208 197
270 277 276 272 262 269 276 283 255 251 250 237 223 212 242 216 229 217 198 195 199 211 212 195 193 190 191 190 196 199 194 194 192 180 184 192 187 190 187 187 184 182 179 181 184 183 185 187 187 181 182 187 188 192 195 194 191 194 195 198 207 200
276 285 279 277 275 265 265 262 256 251 245 229 208 224 237 217 217 206 200 202 209 210 195 199 198 188 189 194 199 199 197 191 190 183 189 191 183 186 198 188 183 178 179 183 185 186 186 185 184 181 187 189 189 193 196 194 197 197 198 200 203 198
282 269 260 260 261 260 254 254 252 248 246 219 216 230 230 215 196 197 207 201 204 199 196 203 195 195 195 200 197 201 192 192 187 185 190 183 189 190 182 191 180 177 178 184 185 184 186 186 183 184 188 192 193 194 194 196 198 201 202 203 202 197
263 260 268 272 269 259 256 249 243 245 247 242 224 229 223 215 186 200 201 202 198 201 200 203 198 203 202 201 199 196 190 187 186 187 195 185 187 184 186 181 184 180 183 185 185 185 187 183 186 188 188 190 191 194 197 197 200 202 202 203 202 200
279 266 242 242 255 256 254 251 249 243 243 252 244 231 225 209 187 199 202 201 204 199 205 201 206 203 204 201 199 187 181 185 188 184 190 189 183 179 183 186 181 189 178 184 177 184 182 184 185 187 187 187 187 192 193 197 199 200 202 202 202 203
280 284 281 270 256 255 257 251 245 246 238 245 246 233 225 211 193 198 204 201 206 208 209 211 204 201 204 199 183 180 186 182 182 190 185 175 182 182 182 178 179 180 176 177 182 184 177 177 180 184 186 184 185 186 195 194 195 199 201 203 203 201
278 280 279 277 270 260 258 256 252 243 248 244 245 229 224 201 190 199 202 204 210 213 211 200 194 184 183 179 176 178 183 186 185 180 173 178 182 177 177 173 169 162 171 168 173 172 170 175 184 183 180 181 185 184 191 191 193 194 197 203 206 205
265 269 273 276 273 266 254 248 242 235 235 244 238 231 226 170 203 196 199 207 215 213 198 184 177 182 175 175 182 185 178 174 171 165 167 176 172 163 154 147 149 157 164 163 160 157 164 179 183 188 186 184 179 183 185 184 192 190 192 192 197 208
261 264 265 263 264 259 256 249 245 237 237 240 236 228 213 185 197 200 198 213 212 195 172 172 184 168 179 185 174 166 167 166 160 160 161 158 154 152 150 144 146 156 160 163 162 164 175 182 187 189 187 187 178 171 173 181 188 184 182 184 186 200
250 249 252 255 258 258 247 247 241 232 238 230 226 223 177 190 201 199 206 210 187 178 175 178 168 171 176 167 174 169 165 153 151 153 153 149 144 142 138 145 154 151 149 143 152 162 175 183 184 181 186 184 179 171 172 172 172 175 176 175 181 185
246 246 249 252 256 256 247 232 231 229 231 222 223 159 173 195 202 201 200 192 178 178 171 164 168 164 164 171 157 155 151 146 140 134 141 150 148 134 138 144 135 141 142 141 141 136 128 130 170 181 181 183 178 172 160 162 162 161 171 167 170 175
252 248 244 250 256 255 262 222 217 231 220 214 185 179 194 187 194 190 186 173 175 168 163 162 157 140 149 150 151 152 147 140 140 130 129 129 131 131 123 124 127 132 132 127 119 112 103 97 120 141 160 168 169 164 149 151 148 146 151 159 161 165
261 261 259 255 254 257 249 250 227 196 164 171 182 192 180 188 170 168 158 153 146 142 145 145 141 135 143 144 135 130 119 118 117 116 118 128 133 132 126 134 120 119 118 113 112 103 88 62 94 110 120 136 150 154 140 131 125 121 108 104 113 126
263 259 262 262 251 237 204 225 189 179 195 161 174 165 165 155 144 133 127 126 132 139 142 137 130 127 126 123 115 88 92 98 85 115 119 104 98 102 106 93 102 107 106 110 108 99 85 66 78 88 92 106 116 107 105 112 107 104 97 91 95 102
293 286 291 299 336 346 283 234 159 155 136 141 142 143 143 141 134 135 130 129 131 136 140 142 138 133 131 129 110 104 113 120 115 103 102 90 106 97 65 89 80 102 107 99 93 93 83 66 70 80 87 101 109 96 98 103 100 93 93 86 89 91
352 11 24 46 46 18 339 141 147 129 121 112 111 114 110 109 111 117 121 126 135 138 143 144 138 132 130 125 119 123 123 115 95 113 128 119 116 96 97 98 85 66 72 83 78 82 86 69 63 74 76 82 92 99 102 105 102 98 97 99 89 89
18 24 26 36 36 352 1 103 117 113 103 95 90 86 83 69 68 72 80 72 90 110 130 139 134 134 132 128 129 130 130 130 128 118 100 99 100 98 97 91 89 79 63 66 76 73 78 74 62 67 72 72 77 82 90 98 100 99 94 98 91 80
25 32 25 16 351 334 38 79 85 86 93 84 82 77 67 60 60 63 55 56 50 50 59 80 107 109 117 118 111 105 109 117 114 114 108 101 104 105 97 90 90 88 73 64 68 65 67 76 71 68 70 69 69 73 77 72 92 98 101 86 89 91
64 64 41 4 340 345 44 92 91 86 85 88 82 72 69 66 64 64 65 64 62 58 57 53 81 96 88 97 106 102 90 93 110 111 109 109 103 101 95 93 93 87 78 64 60 64 52 54 71 71 74 72 70 68 69 70 70 77 83 77 65 53
52 52 38 20 7 357 22 91 97 102 97 89 81 86 88 75 73 75 71 69 65 61 59 68 71 77 91 94 102 97 87 77 89 99 107 107 108 103 99 98 94 91 84 71 60 58 57 46 52 68 72 75 76 76 77 74 72 85 96 89 84 75
61 51 40 11 19 16 359 69 101 96 94 84 96 112 108 98 91 86 81 76 71 61 60 57 68 73 79 87 90 99 95 93 93 95 103 110 107 105 105 102 102 98 93 83 68 62 55 51 50 60 64 69 70 72 75 80 81 78 83 99 101 104
64 59 40 29 28 30 13 355 87 86 84 75 45 16 75 98 101 98 90 86 82 80 73 71 70 70 72 82 91 93 100 97 97 93 103 112 114 114 109 107 109 102 99 98 89 71 62 55 57 52 51 57 63 64 66 68 72 78 82 85 95 93
63 61 45 27 22 31 15 335 97 98 89 59 37 38 44 72 81 85 90 77 85 84 86 77 76 72 67 60 76 91 96 99 103 101 94 106 106 111 109 108 106 106 111 99 96 90 76 65 60 58 50 50 50 58 60 59 57 58 61 56 48 64
70 65 67 42 26 24 7 339 355 97 105 105 82 48 25 58 85 88 90 77 69 68 92 84 75 69 65 68 67 67 69 85 89 97 92 89 93 97 105 108 107 102 102 102 102 96 91 75 69 61 49 47 47 44 48 52 55 49 51 60 38 38
79 74 76 68 34 28 19 357 14 53 83 81 85 87 83 71 70 60 44 53 49 74 83 76 73 75 67 66 71 70 69 69 77 83 81 89 99 99 103 105 107 107 108 106 106 104 95 86 72 61 52 54 49 44 39 39 41 43 38 33 35 38
76 83 77 70 50 50 32 24 19 18 37 69 82 94 96 91 89 81 64 44 54 71 75 77 77 76 74 68 71 73 70 68 68 69 70 82 103 120 111 115 112 109 115 113 109 102 96 84 73 62 49 42 55 42 43 49 59 49 38 41 56 54
62 65 69 62 51 49 69 44 24 6 360 41 78 97 98 97 94 93 91 98 90 80 73 78 79 83 74 75 72 59 57 60 65 77 80 64 44 77 112 111 96 90 89 94 100 106 99 85 71 65 70 59 62 66 64 51 64 55 12 48 63 67
43 52 58 49 36 48 57 55 36 3 348 27 72 101 105 105 97 88 69 67 80 92 93 92 90 89 87 71 76 82 69 57 63 72 78 84 84 85 87 90 97 103 103 93 81 84 93 95 85 74 64 60 59 60 64 62 53 53 54 68 63 69
47 44 49 41 32 30 37 33 19 15 357 25 53 94 107 113 107 97 83 86 81 82 87 93 93 96 96 89 85 83 87 97 53 56 65 72 80 86 90 92 92 88 81 83 89 84 84 81 76 68 60 57 59 61 61 59 54 48 47 59 72 38
86 70 50 39 30 29 29 20 18 9 6 32 64 86 95 105 111 108 95 90 91 94 89 94 94 97 95 90 85 91 104 94 97 71 57 60 65 69 74 77 80 84 87 87 86 79 65 68 67 66 60 54 54 55 59 58 52 50 54 67 91 82
114 116 115 104 81 50 36 26 14 9 7 12 34 76 98 103 110 114 112 103 103 98 92 90 92 89 92 98 96 98 96 109 109 108 105 70 66 67 67 67 68 68 70 72 74 78 79 74 63 57 52 44 48 55 62 64 55 50 48 64 61 98
107 100 91 84 86 88 79 54 24 15 19 9 15 53 77 82 89 96 104 115 109 105 91 87 88 89 87 83 88 90 90 89 100 112 114 112 103 68 60 60 63 64 66 67 70 70 67 64 60 55 51 45 39 46 53 69 61 55 50 64 70 58
98 86 77 74 72 69 57 54 37 31 27 25 44 65 69 64 72 76 82 81 88 92 88 89 92 94 93 93 87 88 91 92 91 94 94 99 102 95 86 64 52 57 63 62 60 64 68 68 64 60 54 45 39 40 63 60 46 41 22 40 47 63
80 76 74 71 71 69 67 52 25 23 40 56 65 69 68 68 67 63 60 72 78 75 77 81 80 83 85 88 88 86 86 79 80 82 87 82 77 81 84 71 59 45 63 69 67 72 75 75 73 70 60 53 44 35 51 74 66 71 61 67 51 73